Time,TemperatureF,DewpointF,PressureIn,WindDirection,WindDirectionDegrees,WindSpeedMPH,WindSpeedGustMPH,Humidity,HourlyPrecipIn,Conditions,Clouds,dailyrainin,SoftwareType,DateUTC
2013-07-04 00:14:00,61.7,60.0,30.03,ESE,117,0.0,0.0,94,0.00,,,0.00,weatherlink.com 1.10,2013-07-04 05:14:00,
2013-07-04 00:29:00,61.6,60.0,30.03,SE,127,0.0,1.0,95,0.00,,,0.00,weatherlink.com 1.10,2013-07-04 05:29:00,
2013-07-04 00:44:00,61.6,60.0,30.03,SE,136,0.0,1.0,95,0.00,,,0.00,weatherlink.com 1.10,2013-07-04 05:44:00,
2013-07-04 00:59:00,61.6,60.0,30.03,SE,125,0.0,0.0,95,0.00,,,0.00,weatherlink.com 1.10,2013-07-04 05:59:00,
2013-07-04 01:14:00,61.7,60.0,30.03,SSW,204,0.0,0.0,95,0.00,,,0.00,weatherlink.com 1.10,2013-07-04 06:14:00,
2013-07-04 01:29:00,61.7,60.0,30.02,WSW,248,0.0,0.0,95,0.00,,,0.00,weatherlink.com 1.10,2013-07-04 06:29:00,
2013-07-04 01:44:00,61.8,61.0,30.02,WSW,251,0.0,0.0,96,0.00,,,0.00,weatherlink.com 1.10,2013-07-04 06:44:00,
2013-07-04 01:59:00,61.8,61.0,30.02,WSW,252,0.0,0.0,96,0.00,,,0.00,weatherlink.com 1.10,2013-07-04 06:59:00,
2013-07-04 02:14:00,62.0,61.0,30.02,WSW,252,0.0,0.0,96,0.00,,,0.00,weatherlink.com 1.10,2013-07-04 07:14:00,
2013-07-04 02:29:00,61.9,61.0,30.02,WSW,249,0.0,0.0,96,0.00,,,0.00,weatherlink.com 1.10,2013-07-04 07:29:00,
2013-07-04 02:44:00,61.8,61.0,30.02,SE,131,0.0,0.0,96,0.00,,,0.00,weatherlink.com 1.10,2013-07-04 07:44:00,
2013-07-04 02:59:00,61.9,61.0,30.02,ESE,102,0.0,0.0,96,0.00,,,0.00,weatherlink.com 1.10,2013-07-04 07:59:00,
2013-07-04 03:14:00,62.0,61.0,30.02,SSW,207,0.0,0.0,96,0.00,,,0.00,weatherlink.com 1.10,2013-07-04 08:14:00,
2013-07-04 03:29:00,62.0,61.0,30.02,SW,226,0.0,0.0,96,0.00,,,0.00,weatherlink.com 1.10,2013-07-04 08:29:00,
2013-07-04 03:44:00,62.3,61.0,30.03,WSW,239,0.0,0.0,96,0.00,,,0.00,weatherlink.com 1.10,2013-07-04 08:44:00,
2013-07-04 03:59:00,62.3,61.0,30.03,SW,224,1.0,2.0,96,0.00,,,0.00,weatherlink.com 1.10,2013-07-04 08:59:00,
2013-07-04 04:14:00,62.3,61.0,30.03,SW,235,1.0,2.0,96,0.00,,,0.00,weatherlink.com 1.10,2013-07-04 09:14:00,
2013-07-04 04:29:00,62.4,61.0,30.03,West,274,1.0,4.0,96,0.00,,,0.00,weatherlink.com 1.10,2013-07-04 09:29:00,
2013-07-04 04:44:00,62.2,61.0,30.03,WSW,245,0.0,3.0,96,0.00,,,0.00,weatherlink.com 1.10,2013-07-04 09:44:00,
2013-07-04 04:59:00,61.8,61.0,30.04,SW,231,0.0,0.0,96,0.00,,,0.00,weatherlink.com 1.10,2013-07-04 09:59:00,
2013-07-04 05:14:00,61.5,60.0,30.04,SW,231,0.0,0.0,96,0.00,,,0.00,weatherlink.com 1.10,2013-07-04 10:14:00,
2013-07-04 05:29:00,61.0,60.0,30.04,SW,231,0.0,0.0,96,0.00,,,0.00,weatherlink.com 1.10,2013-07-04 10:29:00,
2013-07-04 05:44:00,60.6,60.0,30.04,SW,230,0.0,0.0,96,0.00,,,0.00,weatherlink.com 1.10,2013-07-04 10:44:00,
2013-07-04 05:59:00,60.5,59.0,30.05,SW,231,0.0,0.0,96,0.00,,,0.00,weatherlink.com 1.10,2013-07-04 10:59:00,
2013-07-04 06:14:00,60.5,59.0,30.05,SW,230,0.0,0.0,96,0.00,,,0.00,weatherlink.com 1.10,2013-07-04 11:14:00,
2013-07-04 06:29:00,60.8,60.0,30.05,SW,231,0.0,0.0,97,0.00,,,0.00,weatherlink.com 1.10,2013-07-04 11:29:00,
2013-07-04 06:44:00,61.2,60.0,30.05,WSW,242,0.0,1.0,97,0.00,,,0.00,weatherlink.com 1.10,2013-07-04 11:44:00,
2013-07-04 06:59:00,62.2,61.0,30.05,West,264,2.0,2.0,96,0.00,,,0.00,weatherlink.com 1.10,2013-07-04 11:59:00,
2013-07-04 07:14:00,63.5,62.0,30.06,SSW,210,0.0,3.0,95,0.00,,,0.00,weatherlink.com 1.10,2013-07-04 12:14:00,
2013-07-04 07:29:00,64.4,62.0,30.06,WSW,255,0.0,2.0,93,0.00,,,0.00,weatherlink.com 1.10,2013-07-04 12:29:00,
2013-07-04 07:44:00,65.6,63.0,30.07,WSW,240,2.0,3.0,90,0.00,,,0.00,weatherlink.com 1.10,2013-07-04 12:44:00,
2013-07-04 07:59:00,66.3,62.0,30.07,SW,236,0.0,4.0,87,0.00,,,0.00,weatherlink.com 1.10,2013-07-04 12:59:00,
2013-07-04 08:14:00,68.4,63.0,30.07,SSW,200,0.0,3.0,84,0.00,,,0.00,weatherlink.com 1.10,2013-07-04 13:14:00,
2013-07-04 08:29:00,68.9,63.0,30.07,SSE,160,1.0,4.0,81,0.00,,,0.00,weatherlink.com 1.10,2013-07-04 13:29:00,
2013-07-04 08:44:00,69.4,63.0,30.07,SW,233,2.0,4.0,80,0.00,,,0.00,weatherlink.com 1.10,2013-07-04 13:44:00,
2013-07-04 09:00:00,71.0,64.0,30.06,SW,233,1.0,3.0,78,0.00,,,0.00,weatherlink.com 1.10,2013-07-04 14:00:00,
2013-07-04 09:15:00,71.8,63.0,30.06,SW,219,4.0,4.0,74,0.00,,,0.00,weatherlink.com 1.10,2013-07-04 14:15:00,
2013-07-04 09:30:00,72.5,63.0,30.05,West,262,1.0,4.0,71,0.00,,,0.00,weatherlink.com 1.10,2013-07-04 14:30:00,
2013-07-04 09:45:00,73.4,62.0,30.05,SSW,201,2.0,5.0,67,0.00,,,0.00,weatherlink.com 1.10,2013-07-04 14:45:00,
2013-07-04 10:00:00,73.6,61.0,30.05,WSW,252,3.0,7.0,64,0.00,,,0.00,weatherlink.com 1.10,2013-07-04 15:00:00,
2013-07-04 10:15:00,73.9,61.0,30.05,West,271,2.0,4.0,65,0.00,,,0.00,weatherlink.com 1.10,2013-07-04 15:15:00,
2013-07-04 10:30:00,75.3,61.0,30.05,WSW,245,0.0,4.0,62,0.00,,,0.00,weatherlink.com 1.10,2013-07-04 15:30:00,
2013-07-04 10:45:00,76.1,61.0,30.05,SW,219,0.0,4.0,60,0.00,,,0.00,weatherlink.com 1.10,2013-07-04 15:45:00,
2013-07-04 11:00:00,75.7,60.0,30.05,NW,307,1.0,8.0,58,0.00,,,0.00,weatherlink.com 1.10,2013-07-04 16:00:00,
2013-07-04 11:15:00,76.0,60.0,30.05,South,169,2.0,7.0,57,0.00,,,0.00,weatherlink.com 1.10,2013-07-04 16:15:00,
2013-07-04 11:30:00,76.7,58.0,30.04,South,176,2.0,7.0,53,0.00,,,0.00,weatherlink.com 1.10,2013-07-04 16:30:00,
2013-07-04 11:45:00,77.0,60.0,30.04,WSW,240,2.0,9.0,56,0.00,,,0.00,weatherlink.com 1.10,2013-07-04 16:45:00,
2013-07-04 12:00:00,77.4,59.0,30.04,ESE,120,3.0,7.0,54,0.00,,,0.00,weatherlink.com 1.10,2013-07-04 17:00:00,
2013-07-04 12:15:00,78.2,58.0,30.04,SE,134,2.0,8.0,50,0.00,,,0.00,weatherlink.com 1.10,2013-07-04 17:15:00,
2013-07-04 12:30:00,79.4,60.0,30.04,SE,134,2.0,5.0,52,0.00,,,0.00,weatherlink.com 1.10,2013-07-04 17:30:00,
2013-07-04 12:45:00,79.5,61.0,30.04,ESE,119,1.0,4.0,54,0.00,,,0.00,weatherlink.com 1.10,2013-07-04 17:45:00,
2013-07-04 13:00:00,78.7,61.0,30.04,West,269,2.0,9.0,55,0.00,,,0.00,weatherlink.com 1.10,2013-07-04 18:00:00,
2013-07-04 13:15:00,78.4,59.0,30.04,West,276,5.0,7.0,52,0.00,,,0.00,weatherlink.com 1.10,2013-07-04 18:15:00,
2013-07-04 13:30:00,79.5,60.0,30.03,SE,143,1.0,4.0,52,0.00,,,0.00,weatherlink.com 1.10,2013-07-04 18:30:00,
2013-07-04 13:45:00,79.9,62.0,30.02,SW,235,1.0,6.0,54,0.00,,,0.00,weatherlink.com 1.10,2013-07-04 18:45:00,
2013-07-04 14:00:00,80.3,62.0,30.02,ENE,65,0.0,5.0,53,0.00,,,0.00,weatherlink.com 1.10,2013-07-04 19:00:00,
2013-07-04 14:15:00,80.7,62.0,30.02,SW,223,4.0,7.0,54,0.00,,,0.00,weatherlink.com 1.10,2013-07-04 19:15:00,
2013-07-04 14:30:00,80.5,61.0,30.02,WSW,249,2.0,7.0,51,0.00,,,0.00,weatherlink.com 1.10,2013-07-04 19:30:00,
2013-07-04 14:45:00,80.1,60.0,30.02,West,270,1.0,5.0,50,0.00,,,0.00,weatherlink.com 1.10,2013-07-04 19:45:00,
2013-07-04 15:00:00,80.2,61.0,30.02,WSW,239,0.0,7.0,53,0.00,,,0.00,weatherlink.com 1.10,2013-07-04 20:00:00,
2013-07-04 15:15:00,80.2,60.0,30.02,SW,219,7.0,10.0,51,0.00,,,0.00,weatherlink.com 1.10,2013-07-04 20:15:00,
2013-07-04 15:30:00,79.8,62.0,30.02,SW,229,4.0,7.0,54,0.00,,,0.00,weatherlink.com 1.10,2013-07-04 20:30:00,
2013-07-04 15:45:00,80.6,60.0,30.02,WSW,252,4.0,9.0,50,0.00,,,0.00,weatherlink.com 1.10,2013-07-04 20:45:00,
2013-07-04 16:00:00,80.5,60.0,30.01,WSW,248,1.0,6.0,50,0.00,,,0.00,weatherlink.com 1.10,2013-07-04 21:00:00,
2013-07-04 16:15:00,80.7,60.0,30.01,SE,139,2.0,7.0,50,0.00,,,0.00,weatherlink.com 1.10,2013-07-04 21:15:00,
2013-07-04 16:30:00,80.9,60.0,30.01,WSW,245,5.0,9.0,50,0.00,,,0.00,weatherlink.com 1.10,2013-07-04 21:30:00,
2013-07-04 16:45:00,79.8,57.0,30.01,WSW,248,7.0,11.0,46,0.00,,,0.00,weatherlink.com 1.10,2013-07-04 21:45:00,
2013-07-04 17:00:00,80.5,60.0,30.00,WSW,245,8.0,9.0,49,0.00,,,0.00,weatherlink.com 1.10,2013-07-04 22:00:00,
2013-07-04 17:15:00,81.0,59.0,30.00,SSW,210,4.0,8.0,48,0.00,,,0.00,weatherlink.com 1.10,2013-07-04 22:15:00,
2013-07-04 17:30:00,81.0,58.0,30.00,SW,233,7.0,7.0,46,0.00,,,0.00,weatherlink.com 1.10,2013-07-04 22:30:00,
2013-07-04 17:46:00,81.2,58.0,30.00,SW,224,1.0,7.0,46,0.00,,,0.00,weatherlink.com 1.10,2013-07-04 22:46:00,
2013-07-04 18:01:00,81.1,59.0,30.00,SE,125,0.0,9.0,47,0.00,,,0.00,weatherlink.com 1.10,2013-07-04 23:01:00,
2013-07-04 18:16:00,81.1,60.0,30.00,WSW,248,2.0,7.0,48,0.00,,,0.00,weatherlink.com 1.10,2013-07-04 23:16:00,
2013-07-04 18:31:00,81.2,64.0,30.00,WSW,237,0.0,5.0,57,0.00,,,0.00,weatherlink.com 1.10,2013-07-04 23:31:00,
2013-07-04 18:46:00,80.3,65.0,29.99,SSE,150,0.0,6.0,60,0.00,,,0.00,weatherlink.com 1.10,2013-07-04 23:46:00,
2013-07-04 19:01:00,78.9,65.0,30.00,ESE,112,0.0,5.0,63,0.00,,,0.00,weatherlink.com 1.10,2013-07-05 00:01:00,
2013-07-04 19:16:00,78.3,65.0,29.99,East,92,0.0,4.0,64,0.00,,,0.00,weatherlink.com 1.10,2013-07-05 00:16:00,
2013-07-04 19:31:00,79.0,66.0,29.99,SE,141,0.0,2.0,64,0.00,,,0.00,weatherlink.com 1.10,2013-07-05 00:31:00,
2013-07-04 19:46:00,78.2,65.0,29.99,SSW,203,0.0,2.0,64,0.00,,,0.00,weatherlink.com 1.10,2013-07-05 00:46:00,
2013-07-04 20:01:00,76.8,65.0,29.99,East,99,0.0,4.0,68,0.00,,,0.00,weatherlink.com 1.10,2013-07-05 01:01:00,
2013-07-04 20:16:00,75.1,65.0,29.99,ENE,74,0.0,4.0,71,0.00,,,0.00,weatherlink.com 1.10,2013-07-05 01:16:00,
2013-07-04 20:31:00,74.1,65.0,29.99,SE,138,0.0,2.0,73,0.00,,,0.00,weatherlink.com 1.10,2013-07-05 01:31:00,
2013-07-04 20:46:00,73.1,65.0,29.99,East,79,0.0,3.0,75,0.00,,,0.00,weatherlink.com 1.10,2013-07-05 01:46:00,
2013-07-04 21:01:00,72.7,64.0,29.99,East,89,1.0,3.0,75,0.00,,,0.00,weatherlink.com 1.10,2013-07-05 02:01:00,
2013-07-04 21:16:00,72.1,64.0,29.99,SE,142,0.0,2.0,76,0.00,,,0.00,weatherlink.com 1.10,2013-07-05 02:16:00,
2013-07-04 21:31:00,71.5,64.0,30.00,SE,134,0.0,3.0,77,0.00,,,0.00,weatherlink.com 1.10,2013-07-05 02:31:00,
2013-07-04 21:46:00,71.4,64.0,30.00,East,81,0.0,2.0,77,0.00,,,0.00,weatherlink.com 1.10,2013-07-05 02:46:00,
2013-07-04 22:01:00,70.7,64.0,30.00,ESE,118,0.0,0.0,78,0.00,,,0.00,weatherlink.com 1.10,2013-07-05 03:01:00,
2013-07-04 22:16:00,69.7,63.0,30.00,ESE,118,0.0,0.0,80,0.00,,,0.00,weatherlink.com 1.10,2013-07-05 03:16:00,
2013-07-04 22:31:00,69.1,63.0,30.00,ESE,119,0.0,0.0,81,0.00,,,0.00,weatherlink.com 1.10,2013-07-05 03:31:00,
2013-07-04 22:46:00,69.0,63.0,30.00,SW,224,0.0,0.0,82,0.00,,,0.00,weatherlink.com 1.10,2013-07-05 03:46:00,
2013-07-04 23:01:00,68.6,63.0,30.00,East,95,0.0,0.0,82,0.00,,,0.00,weatherlink.com 1.10,2013-07-05 04:01:00,
2013-07-04 23:16:00,68.5,63.0,30.01,East,94,0.0,0.0,83,0.00,,,0.00,weatherlink.com 1.10,2013-07-05 04:16:00,
2013-07-04 23:31:00,68.9,63.0,30.01,East,95,0.0,0.0,82,0.00,,,0.00,weatherlink.com 1.10,2013-07-05 04:31:00,
2013-07-04 23:46:00,68.3,63.0,30.01,SSE,160,0.0,1.0,84,0.00,,,0.00,weatherlink.com 1.10,2013-07-05 04:46:00,